RH
7 7 6 6 6 5 5 4 4 4 3 3 3 2 2 2 2 2 2 2 2 2 2 3 3 3 4 5 7 9 11 14 18 21 24 28 32 35 37 39 40 42 42 44 44 45 46 47 48 48 49 49 50 50 50 50 50 50 50 50 50 49 49 48 47 46 45 44 44 43 42 42 42 41 40 40 40 39 39 39 38 38 37 37 36 36
7 6 6 5 5 4 4 4 3 3 2 2 2 2 2 2 2 2 2 2 3 3 3 4 4 5 6 8 12 15 19 23 26 30 34 37 40 42 44 45 46 47 48 48 49 50 50 50 50 51 51 51 52 52 52 52 51 51 51 50 50 49 48 47 46 45 44 44 43 42 42 41 40 40 40 39 39 38 38 38 38 37 37 37 37 37
6 6 5 4 4 4 3 3 3 2 2 2 2 2 2 2 2 3 3 3 3 4 4 5 6 8 10 14 19 23 27 31 35 38 42 44 46 47 48 49 50 50 50 51 51 51 51 51 51 52 52 52 52 52 52 52 51 50 50 49 49 48 47 46 46 45 44 43 42 42 41 40 40 39 38 38 37 36 36 36 35 35 35 35 36 36
5 5 4 4 4 3 3 2 2 2 2 2 2 2 3 3 3 3 4 4 4 5 6 8 11 14 18 22 27 32 35 39 42 44 46 47 48 49 50 50 51 51 51 51 51 51 51 51 51 51 51 52 52 52 52 51 50 50 49 49 48 47 46 46 45 44 44 43 42 41 40 39 38 37 36 35 34 34 33 33 33 33 33 34 34 35
4 4 4 3 3 2 2 2 2 2 2 3 3 3 3 4 4 4 4 5 6 8 10 13 17 21 26 30 35 39 42 44 45 47 48 49 50 50 50 50 50 50 50 50 50 50 50 50 50 50 51 51 51 51 51 50 50 50 49 48 48 47 46 45 44 44 43 42 41 40 39 38 37 36 34 34 33 32 32 32 32 32 33 35 36 38
4 3 3 3 2 2 2 2 2 3 3 3 3 4 4 4 5 5 6 8 10 12 16 20 24 29 34 38 42 44 45 46 47 48 48 49 49 50 50 49 49 49 48 48 48 49 49 49 50 50 50 50 50 50 50 50 50 49 48 48 47 46 46 45 44 43 42 42 40 40 38 37 36 35 34 32 32 32 31 32 33 34 36 38 40 42
3 3 2 2 2 2 2 3 3 4 4 4 4 4 5 6 6 8 10 12 16 20 23 27 32 36 40 44 46 47 47 47 47 47 48 48 49 49 49 48 48 48 47 48 48 48 49 49 50 50 50 50 50 50 50 50 50 49 48 48 47 46 46 44 44 42 42 40 40 39 38 36 36 34 34 33 32 32 33 34 36 39 42 44 47 49
2 2 2 2 2 3 3 3 4 4 5 5 6 6 6 8 10 12 14 18 23 27 31 34 38 42 44 46 47 47 47 46 46 46 47 48 48 48 48 47 47 47 47 48 48 49 49 50 50 50 50 50 50 50 50 50 50 49 49 48 47 46 46 44 43 42 42 40 40 38 38 37 36 35 34 34 34 35 36 39 42 45 48 51 53 55
2 2 2 3 3 3 4 4 4 5 6 7 8 10 10 12 14 18 21 25 30 35 38 40 42 44 46 46 46 46 46 46 46 46 46 47 48 48 47 46 46 47 48 48 49 50 50 50 50 50 50 50 50 50 49 49 49 48 48 48 47 46 46 44 43 42 42 40 40 39 38 37 36 36 35 35 36 38 42 45 48 51 54 56 57 58
2 3 3 3 4 4 4 5 5 6 8 10 12 15 18 20 22 24 28 32 36 40 43 44 45 44 44 45 45 45 44 44 45 46 48 48 48 48 48 47 47 47 48 49 49 50 50 50 50 50 49 49 48 48 48 47 47 47 47 47 47 46 46 45 44 43 42 42 40 40 39 38 37 37 36 38 40 43 47 51 54 56 58 58 59 60
3 3 4 4 4 5 6 6 7 8 11 14 17 22 27 30 32 34 34 38 40 43 45 45 45 44 43 43 44 44 44 44 44 46 47 48 48 48 47 46 47 47 48 48 49 49 49 49 49 48 48 48 47 47 47 47 48 48 48 47 47 46 46 45 45 44 43 42 42 40 40 39 38 38 39 42 46 50 54 56 58 58 58 59 60 61
4 4 4 5 5 6 6 8 10 13 17 21 24 28 34 40 43 44 43 44 45 45 45 44 44 43 42 42 43 44 45 44 44 44 46 46 47 46 45 45 46 46 47 47 48 48 48 48 48 48 48 48 48 49 50 50 51 52 51 50 49 48 48 47 46 46 44 43 42 41 40 40 40 41 43 48 52 56 58 60 60 60 60 60 61 63
5 5 6 6 6 8 10 12 16 20 26 31 35 38 42 46 49 51 50 50 48 47 45 44 42 42 42 43 44 46 46 45 44 44 45 46 46 46 45 44 45 45 46 46 46 46 47 47 48 48 48 50 51 52 54 56 57 57 57 55 53 52 51 50 49 47 46 44 42 42 42 42 43 46 50 55 58 60 61 61 61 61 61 62 63 65
6 6 6 7 8 11 15 20 24 30 36 41 44 47 49 52 54 54 53 51 50 48 46 43 42 42 42 44 46 47 48 47 46 46 45 46 46 46 46 45 45 45 45 45 45 46 46 47 48 49 50 52 54 56 58 60 61 61 61 60 58 56 55 53 52 50 47 45 44 44 44 45 48 53 57 60 62 63 62 62 62 62 63 64 65 66
7 7 8 10 13 18 23 28 34 40 45 50 52 54 55 56 56 56 54 51 49 48 46 44 42 42 42 45 47 49 50 50 49 48 46 46 46 47 47 46 46 46 46 45 46 46 46 47 48 50 51 53 56 58 60 62 63 64 65 64 62 61 60 58 55 52 50 48 47 47 48 52 56 60 64 65 65 64 64 63 63 64 64 65 66 66
8 9 11 15 20 26 32 39 44 48 52 56 58 58 58 58 57 56 54 52 50 48 47 45 44 42 42 44 47 50 51 52 53 52 49 46 46 48 49 48 47 46 46 46 46 46 47 47 48 50 52 54 56 58 60 62 65 67 70 70 69 68 66 62 59 56 53 52 51 52 55 59 63 66 68 68 67 66 65 64 64 65 66 66 66 66
10 13 17 23 28 35 42 47 52 56 58 60 60 60 60 58 58 57 56 54 52 51 50 50 48 46 43 43 46 50 54 55 55 54 50 47 46 47 50 50 48 47 46 46 47 48 48 48 48 50 52 54 56 57 60 62 66 70 74 75 74 73 71 68 64 60 57 56 56 58 62 66 70 72 72 70 69 67 66 66 66 66 67 68 68 67
15 20 26 32 39 44 50 54 58 60 62 62 61 60 60 60 58 58 56 56 55 54 54 53 52 49 46 44 46 51 57 58 58 55 51 47 46 47 50 51 50 48 47 48 48 49 49 48 49 50 52 54 55 57 59 62 67 72 76 78 76 74 74 72 69 65 62 61 62 64 68 72 74 74 74 72 71 69 68 68 68 68 69 69 69 69
22 28 36 42 48 52 57 59 61 62 63 63 62 60 60 59 58 58 58 57 57 57 56 55 52 50 48 46 48 53 60 61 60 58 53 48 46 46 50 51 51 50 48 48 49 50 50 49 50 50 52 53 54 56 58 62 66 72 77 79 78 76 76 74 72 70 67 66 66 68 72 76 76 76 76 74 72 71 70 69 69 70 70 70 70 71
30 38 46 52 55 58 60 62 64 64 64 64 63 62 61 60 60 59 58 58 58 58 57 55 52 51 49 49 51 55 61 63 62 60 55 50 47 47 51 52 52 50 48 49 50 51 51 50 50 50 52 53 54 56 58 61 65 70 76 79 80 79 78 76 75 74 71 69 69 70 74 76 77 77 76 75 73 72 70 70 69 70 70 71 72 73
40 47 55 59 60 60 61 63 64 65 65 65 64 64 62 61 60 60 59 59 60 59 58 56 54 53 53 53 55 58 63 65 64 61 56 51 48 48 52 53 52 50 49 49 50 51 52 51 50 50 51 52 54 56 58 60 64 68 73 77 80 82 81 80 78 76 74 72 72 72 74 76 76 77 76 74 73 71 70 70 70 71 72 73 74 73
49 54 60 62 64 64 63 63 64 65 66 65 65 65 64 63 62 62 61 62 63 63 62 60 58 56 56 57 58 60 64 67 67 64 60 54 50 49 52 54 53 51 50 50 50 51 52 51 50 50 51 52 54 56 58 60 62 66 69 73 76 80 82 82 81 80 78 76 74 74 75 76 76 76 76 74 73 72 72 72 73 73 74 74 74 73
56 58 61 63 64 65 64 64 64 65 66 66 66 66 66 67 67 67 67 68 67 66 64 61 59 58 58 58 60 62 64 67 68 66 62 57 53 51 52 54 54 52 50 50 51 51 51 50 50 50 50 52 54 55 57 59 61 63 65 68 71 74 78 82 83 83 82 81 80 79 78 78 78 78 77 76 76 76 76 76 75 75 76 75 74 72
60 62 63 64 65 66 66 66 66 66 66 67 68 69 70 72 72 72 72 71 70 68 66 62 60 58 58 60 60 62 64 66 68 67 65 60 56 54 54 56 55 54 51 51 51 51 50 49 48 49 50 52 53 55 56 58 59 60 62 63 65 68 72 76 81 84 84 84 84 83 82 81 80 79 78 78 78 78 77 77 76 76 76 75 73 71
62 64 64 65 66 66 67 67 67 68 69 70 72 74 74 74 74 73 72 72 70 69 66 63 60 59 58 59 60 60 61 64 66 67 66 63 58 56 55 58 58 56 52 50 50 50 50 48 48 48 50 52 53 54 56 56 57 58 58 58 60 63 66 70 74 78 82 84 84 84 83 82 80 79 78 78 78 78 78 77 76 76 76 74 72 70
65 66 66 67 67 68 68 68 68 70 72 74 76 76 76 74 73 72 70 70 70 69 67 64 62 60 59 58 58 58 58 62 65 68 68 66 61 58 56 58 58 57 53 50 50 50 50 48 48 48 50 51 52 54 54 55 55 55 55 55 57 58 61 64 68 72 76 80 82 83 83 82 80 79 78 78 78 78 77 77 76 76 76 74 72 69
66 67 67 67 67 66 66 67 68 70 73 75 76 77 76 74 73 71 70 70 70 70 68 66 64 61 60 58 56 56 56 60 64 67 70 67 63 60 57 58 59 58 55 52 51 50 51 50 49 49 50 50 51 52 52 52 53 53 53 54 54 56 58 60 62 66 70 74 78 81 82 82 80 79 78 78 77 77 77 76 76 76 75 73 71 68
65 65 65 65 64 64 65 66 68 71 73 75 76 77 76 76 74 73 72 72 72 71 70 68 66 63 60 58 56 54 54 58 63 68 70 67 64 61 59 60 61 60 58 55 52 51 51 50 50 50 50 50 50 50 50 51 52 52 53 53 54 55 56 57 59 62 65 69 73 77 80 80 80 80 79 78 77 77 76 76 76 76 74 73 71 68
62 61 61 62 62 63 64 66 69 71 73 74 76 76 76 76 76 75 74 73 73 72 70 68 66 64 61 58 56 54 53 58 64 69 70 68 65 62 62 64 64 64 62 59 54 51 49 50 50 51 50 50 50 50 50 50 52 52 53 53 53 54 54 55 57 58 61 64 68 72 75 77 78 79 79 78 78 77 76 76 76 75 74 72 70 68
58 58 58 60 62 64 65 67 69 70 72 74 74 76 76 76 76 76 74 74 72 71 70 68 66 64 62 60 56 54 53 58 65 72 74 72 69 66 66 66 66 66 66 64 60 54 48 48 50 52 53 52 51 50 50 51 51 52 52 52 52 52 53 54 55 56 58 60 64 67 70 72 74 76 76 76 76 76 76 76 75 74 72 70 68 66
55 57 58 60 62 64 66 67 68 70 71 72 74 74 76 76 76 74 73 72 71 70 68 67 66 65 63 62 59 57 54 59 67 74 77 76 73 70 69 69 68 68 69 71 69 63 54 49 48 51 54 53 52 51 51 51 52 52 51 50 50 51 52 54 54 55 56 58 60 62 64 67 68 70 71 72 72 72 72 72 72 70 69 67 65 62
56 58 60 62 63 65 66 67 68 69 70 72 73 74 74 74 73 72 71 70 69 69 68 67 66 65 64 64 62 60 58 61 68 76 79 78 76 72 72 72 71 70 71 74 74 72 65 56 52 51 53 53 53 52 51 52 52 52 51 50 50 51 52 54 55 55 55 56 57 59 60 62 64 64 65 66 66 66 66 66 65 64 63 62 60 58
57 59 61 63 65 66 67 68 68 69 70 71 72 72 72 72 71 70 69 69 68 68 68 68 67 66 65 64 63 62 61 65 71 77 81 81 78 76 74 74 74 73 73 73 74 72 70 62 58 54 52 52 52 52 52 52 52 51 51 51 51 52 53 55 56 56 56 56 56 57 58 60 60 61 61 61 61 61 61 60 60 60 58 58 56 55
59 61 63 65 66 67 67 68 68 68 69 69 70 70 70 70 70 69 69 68 69 69 69 70 69 68 67 65 64 63 62 67 74 79 82 83 81 79 76 76 76 75 74 73 72 70 68 65 61 58 55 52 51 52 53 52 52 51 51 52 53 54 56 58 58 58 57 56 56 56 57 58 58 59 60 60 60 59 59 58 58 57 56 56 55 54
61 63 65 66 66 66 66 66 66 66 66 67 67 68 69 69 69 69 69 69 70 70 70 71 71 71 70 69 67 66 65 69 74 80 83 84 83 82 80 78 77 77 76 74 72 71 69 66 64 63 61 56 53 51 52 54 53 53 53 55 57 59 60 62 62 61 60 58 57 57 57 58 58 58 58 58 58 58 58 58 58 58 57 56 56 55
62 64 66 66 65 65 64 64 63 64 64 65 66 68 68 69 69 70 70 70 71 71 72 72 73 73 73 73 72 71 70 72 76 79 82 84 84 84 82 80 79 78 78 76 74 73 72 70 68 66 65 62 58 54 52 53 54 55 56 59 62 64 66 68 68 67 64 61 60 58 58 58 58 58 57 58 58 58 58 58 58 58 58 58 58 58
63 64 64 64 64 62 62 62 62 62 63 65 66 68 69 70 70 71 71 72 72 73 74 74 74 74 74 75 75 74 74 75 76 78 81 82 84 84 84 81 79 79 79 78 76 76 75 74 71 69 68 66 63 60 56 54 55 57 60 63 66 68 70 72 73 72 69 66 63 61 60 59 58 57 56 56 57 56 56 56 57 57 58 58 59 60
63 63 63 62 62 61 61 61 62 64 65 66 68 69 70 71 72 72 73 73 74 74 75 75 75 75 75 76 76 76 76 76 77 78 79 81 82 84 84 82 80 78 79 79 79 78 78 77 76 73 70 66 64 62 60 58 58 60 63 66 69 71 73 74 75 74 72 69 66 63 61 60 58 58 57 56 56 56 56 56 57 58 59 60 61 63
62 61 61 61 61 62 62 64 65 66 68 68 69 70 71 72 73 74 74 75 76 76 76 76 76 75 74 75 76 76 76 76 76 76 77 79 81 82 83 81 79 78 77 78 79 80 81 80 78 76 72 68 65 62 60 60 61 64 67 68 69 71 74 76 76 76 74 71 68 64 62 61 60 59 58 57 57 56 56 56 58 60 62 63 65 67
60 60 60 61 62 64 66 68 69 70 70 70 71 72 73 74 74 75 76 76 77 77 78 77 76 75 74 74 75 76 76 76 75 74 76 77 79 80 81 80 78 77 76 77 78 79 81 80 77 75 74 71 68 66 62 62 64 69 73 73 72 72 72 75 76 76 75 72 69 66 62 61 60 59 58 58 57 57 58 58 60 62 64 66 69 71
60 60 61 63 66 68 71 72 73 73 72 72 72 73 74 74 75 76 76 76 77 77 78 77 76 74 74 74 74 74 74 74 73 73 74 75 77 79 80 79 78 78 78 78 78 79 80 79 77 75 74 74 72 70 66 66 69 74 78 78 76 74 73 74 76 76 74 71 68 65 63 61 60 59 58 58 58 59 60 61 63 64 67 70 73 76
61 63 65 67 69 71 72 73 73 73 72 72 74 74 76 76 76 76 76 76 76 77 78 77 76 74 72 71 71 72 72 72 71 71 72 74 76 78 80 79 79 80 80 80 80 79 79 79 78 76 76 76 75 74 71 70 73 76 81 82 80 76 73 72 73 74 73 69 67 65 64 63 62 60 60 60 60 61 63 65 66 68 71 74 78 80
64 66 68 70 72 72 72 72 71 71 72 74 76 77 78 79 78 78 77 77 77 78 78 78 76 74 72 69 67 67 67 68 69 70 72 74 77 79 80 80 81 81 82 82 81 80 79 79 79 78 78 79 78 78 76 76 76 78 80 82 82 79 76 72 70 71 71 69 67 66 66 64 63 62 61 61 62 63 65 67 69 71 74 77 80 82
67 69 70 71 71 71 70 70 71 72 73 75 77 78 80 80 80 80 80 79 79 79 79 78 76 74 71 68 66 65 64 65 66 69 72 76 78 81 82 82 82 82 82 83 82 82 80 79 79 80 81 82 82 81 80 79 79 80 80 81 82 80 77 74 71 70 68 67 66 66 66 65 64 63 62 62 63 64 65 67 69 72 75 78 80 82
69 70 70 70 70 70 70 71 72 73 74 76 78 79 80 80 81 81 81 81 80 79 78 77 76 73 70 68 67 66 65 65 66 68 71 76 79 82 84 83 83 82 82 82 83 83 83 82 81 81 82 83 83 83 82 81 81 80 79 80 80 78 76 74 71 69 67 65 64 64 65 65 65 64 63 63 63 64 65 67 69 72 74 77 78 80
69 69 69 70 70 71 72 73 74 74 76 76 78 79 80 81 81 82 82 81 80 78 77 76 76 74 73 71 70 70 68 67 67 68 71 75 79 82 84 83 83 82 81 81 82 83 84 84 83 83 83 82 82 81 81 81 81 80 79 78 77 75 72 70 69 68 67 65 64 64 65 65 65 65 64 63 63 64 65 68 70 72 74 75 76 78
68 69 69 70 72 73 74 74 76 76 76 76 78 79 80 81 81 81 80 80 79 78 77 76 76 76 76 74 74 74 73 72 70 70 72 75 78 80 81 81 81 81 81 81 82 82 84 84 84 84 84 83 81 79 78 79 80 80 78 77 75 72 69 67 66 66 66 65 65 65 65 66 66 66 65 64 64 64 64 67 69 71 72 74 76 79
69 70 71 72 74 75 76 76 77 77 76 77 77 78 80 81 82 82 81 80 80 79 79 78 78 77 76 76 76 76 76 76 74 74 74 76 77 78 78 78 78 78 79 79 80 82 82 82 83 83 84 83 82 79 76 76 77 77 77 76 74 71 68 66 66 66 66 66 66 67 68 68 69 68 68 66 64 63 63 64 66 69 72 74 78 81
71 72 74 75 76 78 78 78 78 78 78 78 78 78 80 81 83 84 83 82 82 81 81 80 80 79 78 77 77 78 78 77 76 76 76 78 78 78 77 76 76 76 76 77 77 78 78 77 78 79 80 81 81 80 76 76 76 76 76 76 74 73 70 68 67 67 68 68 68 68 70 71 72 72 72 69 66 63 62 62 65 68 72 76 80 83
73 74 76 78 79 80 80 80 80 80 79 79 78 79 80 81 82 84 84 84 84 83 83 82 82 81 80 79 79 78 78 78 77 77 78 78 79 78 77 76 76 76 76 75 74 74 73 72 71 72 75 78 81 81 80 78 77 77 77 76 76 76 74 72 70 70 70 70 70 70 71 72 73 74 74 72 68 64 62 62 64 67 72 77 82 85
74 76 78 80 82 82 82 82 82 81 80 80 80 80 81 82 83 84 84 84 84 84 84 83 83 82 82 81 80 80 80 79 78 78 78 79 79 79 78 78 78 79 79 76 74 73 71 69 68 67 69 75 80 83 84 83 82 81 80 78 77 77 76 75 74 72 72 72 72 72 72 73 73 73 74 72 70 67 64 63 64 68 74 79 84 86
Wind_Speed
56 56 56 57 57 57 57 57 57 57 57 57 57 56 56 56 55 54 54 53 52 51 50 49 47 45 44 42 40 38 37 36 35 34 33 33 32 32 32 32 32 32 32 32 32 32 32 32 33 33 33 33 33 33 34 34 34 34 34 34 34 34 34 34 34 34 35 35 36 36 37 38 38 39 39 39 40 40 40 40 40 40 40 40 40 40
56 57 57 58 57 57 58 58 57 56 56 56 56 56 55 55 54 53 52 51 50 49 47 46 44 42 40 38 37 35 34 33 32 31 30 30 29 30 30 30 30 30 30 30 30 30 31 31 31 32 32 32 32 33 33 34 34 34 34 34 34 34 34 34 35 35 36 36 37 37 38 39 39 39 39 39 39 39 39 39 39 39 40 40 40 40
57 57 57 58 58 57 57 57 57 56 55 55 55 55 54 53 52 51 50 49 48 46 45 43 41 39 37 35 33 32 30 29 28 28 27 27 27 27 28 28 28 28 29 29 29 30 30 30 31 31 32 32 33 33 34 34 34 34 34 34 35 35 35 35 36 36 37 37 38 38 39 39 39 39 39 39 39 39 39 39 39 39 39 39 39 39
57 57 57 57 57 57 56 56 55 55 54 53 53 53 52 51 50 49 48 47 45 44 42 40 38 36 34 32 30 29 28 27 26 26 25 25 26 26 27 27 28 28 28 29 29 30 30 31 31 32 32 33 33 34 35 35 35 35 35 35 36 36 36 36 37 37 38 38 39 39 39 39 39 39 39 39 39 39 39 39 39 39 39 39 38 38
57 56 57 57 56 56 56 54 53 53 52 52 51 51 50 49 48 47 46 44 43 41 39 37 35 33 32 30 28 26 25 25 25 25 25 25 26 26 27 27 28 28 29 29 30 30 31 31 32 32 33 33 34 35 35 35 36 36 36 36 36 37 37 37 38 38 39 39 39 39 39 39 39 39 39 39 39 39 39 39 39 38 38 38 38 38
56 56 56 55 55 54 54 53 52 51 50 50 50 49 48 47 46 44 43 42 40 38 37 35 33 31 29 27 26 25 24 24 24 25 25 26 26 27 28 28 28 29 29 30 30 31 31 32 32 33 33 33 34 34 35 35 35 35 36 36 36 37 38 38 39 40 40 40 40 40 40 40 39 39 39 39 39 39 39 39 38 38 38 38 38 38
55 54 54 54 53 53 52 51 50 49 48 48 48 47 46 44 43 42 40 39 37 36 34 32 30 28 27 26 25 25 24 24 25 26 26 27 27 28 28 28 29 29 29 30 30 31 31 31 31 32 32 32 33 33 33 33 34 34 35 35 36 37 38 39 40 40 41 41 40 40 40 40 40 40 40 39 39 39 38 38 38 37 37 37 37 38
54 54 53 52 52 52 51 49 48 47 46 46 46 45 44 43 41 39 38 36 35 33 32 31 29 27 25 25 24 25 25 26 26 26 27 27 28 28 28 28 29 29 29 29 29 29 29 29 29 30 30 30 31 31 31 32 32 33 34 34 35 37 38 39 40 40 41 41 40 40 40 40 40 39 39 39 39 38 38 37 37 37 37 36 36 36
52 52 52 51 50 49 49 48 46 44 43 43 43 43 42 41 40 38 36 34 32 31 30 30 29 27 25 24 24 25 26 27 27 27 28 28 28 28 28 28 28 28 28 28 28 27 27 27 27 28 28 28 29 29 30 30 31 32 33 34 35 37 38 39 40 40 40 40 40 40 40 39 39 39 38 38 38 37 37 36 36 36 35 34 34 33
51 50 50 50 49 47 46 45 44 43 41 41 41 40 39 38 38 37 36 33 31 29 29 29 29 28 26 25 25 25 26 27 28 28 28 28 28 28 28 28 27 27 26 26 25 25 25 25 25 26 27 27 28 28 29 30 30 31 32 34 35 37 38 39 40 40 40 40 39 39 39 38 38 38 37 37 36 36 35 35 34 33 32 30 29 28
50 49 48 48 47 46 44 43 42 41 40 39 39 38 37 35 35 35 35 34 31 29 29 29 28 28 27 27 27 26 27 28 29 29 28 27 26 26 27 27 26 25 24 24 23 22 23 23 24 25 26 26 27 27 28 29 29 30 32 33 35 37 38 39 39 39 39 39 38 38 38 37 37 36 36 35 35 34 34 33 31 29 28 26 25 24
48 48 47 46 45 44 43 42 41 40 38 37 37 37 36 34 33 33 34 33 32 31 30 30 29 28 28 28 29 29 29 30 30 30 29 27 25 25 25 25 25 24 23 22 21 21 22 23 24 24 25 25 25 26 26 27 28 29 31 33 34 36 37 38 38 39 38 38 38 37 37 36 35 35 34 34 33 32 31 30 28 26 24 23 22 21
47 46 45 45 44 42 41 40 40 39 37 36 35 35 35 34 33 32 32 33 32 32 32 31 31 29 28 28 29 31 31 32 32 32 30 27 25 24 25 25 24 23 22 22 21 21 22 23 23 24 24 24 24 24 25 25 26 28 30 31 33 35 36 37 37 37 37 37 37 36 35 35 34 33 32 32 31 30 29 27 25 23 22 21 20 20
45 45 44 43 42 41 39 38 37 37 36 34 33 33 33 33 32 32 32 33 33 32 32 32 32 31 29 29 30 31 33 34 34 33 31 28 25 24 25 25 24 23 22 22 22 22 22 23 24 24 23 23 23 23 23 24 25 26 28 30 32 33 35 35 36 36 36 36 35 35 34 33 32 31 31 30 29 28 26 25 23 22 21 21 20 20
44 43 42 41 40 39 37 36 36 35 34 33 32 32 32 32 32 32 32 33 34 33 33 33 33 32 31 30 30 31 33 35 35 34 32 28 25 24 24 25 25 24 23 23 23 23 23 24 24 24 23 22 22 21 22 22 24 25 27 28 30 32 33 34 34 34 34 34 34 33 32 31 30 29 29 28 27 26 25 24 23 22 22 21 21 21
42 41 40 39 38 37 35 34 33 33 32 31 31 31 31 32 32 33 33 34 34 34 35 35 35 34 32 30 30 31 33 35 36 35 32 28 25 23 24 25 26 25 24 24 24 25 25 25 24 24 23 22 21 21 21 22 22 24 25 26 28 30 31 32 32 32 32 32 32 31 30 29 28 28 27 27 26 25 24 23 23 22 22 22 21 21
40 39 38 37 36 35 34 32 31 31 30 30 31 31 31 32 33 33 34 35 35 35 36 36 36 36 35 33 31 31 32 34 35 35 33 29 25 23 24 26 27 27 26 25 26 26 26 26 25 24 23 21 21 20 21 21 22 22 23 25 26 27 28 29 30 30 30 30 29 28 28 27 27 26 26 26 25 24 24 23 23 22 22 22 22 22
39 37 36 35 35 34 32 31 30 30 30 30 31 31 32 32 33 34 35 35 36 36 36 36 36 37 38 36 34 32 32 34 35 35 33 30 26 24 24 26 27 28 27 27 27 27 27 27 26 24 23 22 21 20 20 21 21 21 22 23 24 25 26 27 28 28 28 28 27 26 26 26 26 26 26 25 25 24 24 23 23 23 22 22 22 22
37 35 34 33 33 32 31 29 29 29 30 31 32 33 33 34 34 34 35 35 35 36 36 36 36 37 38 38 36 35 34 34 35 35 34 31 27 25 25 27 28 29 28 28 28 28 28 27 26 25 23 22 21 20 20 20 20 20 21 21 22 22 23 25 26 26 26 26 25 25 25 25 25 25 25 25 25 24 24 23 23 23 23 23 23 24
35 33 31 31 31 31 30 29 28 28 30 31 33 34 34 35 35 35 35 35 35 35 36 36 37 38 38 38 37 35 34 35 35 36 35 33 29 27 26 28 30 30 30 29 29 29 29 28 27 25 23 22 21 21 20 20 20 20 20 20 20 21 22 23 24 25 26 25 25 24 24 25 25 25 25 25 25 24 24 23 23 23 23 24 24 25
33 31 29 28 29 30 30 29 28 29 30 32 33 34 35 35 35 35 35 35 35 36 36 37 38 38 38 39 38 36 35 35 35 36 35 34 31 28 28 29 31 32 31 30 30 30 30 29 27 25 24 22 21 21 20 20 19 19 19 19 19 20 20 21 23 24 25 25 25 24 24 25 25 25 25 25 24 24 23 23 23 24 25 26 26 27
30 29 28 27 27 28 29 29 29 30 31 32 33 34 35 35 35 35 35 35 35 36 37 38 38 38 39 39 38 36 34 34 34 35 36 35 32 30 29 31 32 33 33 32 31 31 30 29 28 26 24 22 21 21 20 20 19 19 19 19 19 19 19 20 21 23 24 25 25 25 25 25 25 25 25 25 24 24 24 24 25 26 27 28 29 29
28 27 27 27 27 28 29 30 30 31 31 32 33 34 34 34 35 35 35 35 36 37 37 38 38 38 38 38 37 35 33 32 33 34 35 35 34 32 31 31 33 34 34 33 32 32 31 30 28 26 24 23 22 21 21 20 20 20 20 20 20 19 19 19 20 21 23 25 26 26 26 26 26 26 25 25 25 25 25 26 27 28 29 30 31 31
26 26 26 27 27 28 29 30 31 31 32 32 33 33 33 33 33 34 34 35 35 37 38 39 39 39 38 38 37 35 32 31 31 32 33 35 34 33 32 32 34 34 34 34 34 34 33 31 29 27 25 24 23 22 21 21 21 21 21 21 21 20 20 19 19 20 22 24 25 26 27 27 27 27 27 27 27 27 28 29 30 31 32 33 33 33
26 26 27 27 28 29 30 30 31 31 31 32 32 32 32 32 32 33 33 34 35 37 38 39 39 39 39 38 37 34 31 29 29 30 32 34 34 34 32 33 34 35 35 35 34 35 34 33 30 28 26 25 24 23 23 22 22 22 23 23 22 22 21 20 19 20 21 23 25 26 28 28 28 28 28 29 29 30 31 32 33 34 34 35 35 35
25 26 27 28 28 29 29 30 30 30 30 30 30 31 32 32 33 33 33 34 35 37 38 39 39 40 39 39 37 34 31 28 27 28 31 33 35 34 33 33 34 36 36 36 36 36 36 34 32 30 28 27 25 24 23 23 23 23 23 23 23 22 22 21 20 20 21 22 24 26 28 29 30 30 30 31 32 32 33 34 35 36 36 36 37 37
25 26 27 28 28 29 29 29 28 28 28 28 28 29 31 32 33 34 34 35 36 37 38 39 40 40 39 38 36 33 29 26 25 27 29 32 34 34 34 34 35 36 37 37 37 37 37 36 34 32 30 28 27 25 24 24 24 24 24 23 23 23 23 22 22 21 21 22 23 25 27 29 30 31 32 33 34 34 35 36 37 37 37 38 38 38
25 26 26 27 28 28 27 27 27 26 26 27 27 29 30 32 34 34 35 36 37 37 38 39 39 39 39 38 35 32 27 25 25 26 29 32 34 35 35 35 36 37 39 39 39 39 38 38 36 34 32 30 28 27 26 25 25 25 24 24 23 23 23 23 22 22 22 22 23 25 27 29 30 32 33 34 35 36 36 37 38 38 39 39 39 40
25 25 26 26 26 26 26 26 25 25 25 26 27 28 30 31 33 34 35 36 36 37 37 38 38 38 38 37 34 30 26 24 25 27 30 32 34 35 35 36 37 38 40 41 41 40 39 38 37 36 34 32 30 29 28 27 27 26 25 24 23 23 22 22 22 22 22 22 23 24 26 27 29 31 33 34 35 36 37 38 38 39 39 40 40 40
24 25 25 25 25 25 25 25 25 25 25 26 27 28 29 31 32 33 34 35 35 36 36 36 36 36 36 35 33 29 25 24 25 27 31 33 35 36 36 37 37 38 40 42 43 43 42 39 38 37 36 35 33 31 30 29 28 27 26 25 23 22 22 22 22 22 22 22 23 23 25 26 28 30 31 33 35 36 36 37 38 39 40 41 41 41
24 24 24 24 24 24 24 24 25 25 25 26 26 27 28 29 31 32 32 33 34 35 35 35 35 34 34 34 33 31 27 25 25 28 31 34 36 36 37 38 38 38 39 41 44 46 45 43 40 39 38 37 35 33 31 30 29 28 27 26 24 23 22 22 22 22 22 22 22 23 24 25 27 28 30 32 33 34 35 36 38 39 40 41 42 42
24 24 24 24 24 24 24 25 25 25 25 26 26 27 28 28 29 30 31 32 33 33 34 34 33 33 32 32 32 31 29 27 27 28 31 34 36 37 37 38 39 39 39 40 42 44 46 46 44 42 40 39 37 35 33 31 30 30 28 27 25 23 22 22 22 21 21 21 22 22 23 24 25 27 29 30 32 33 34 35 37 38 40 41 42 43
25 24 24 24 24 25 25 25 25 25 25 26 26 27 27 28 28 29 30 31 31 32 32 32 32 31 31 31 31 30 29 28 28 29 31 34 36 37 38 38 39 40 40 40 40 42 44 45 45 44 43 41 39 37 35 33 32 31 30 28 26 24 22 21 21 21 21 21 21 21 22 23 25 26 27 29 30 32 33 34 36 37 39 41 42 43
25 25 25 25 25 25 25 25 25 25 26 26 26 27 27 28 28 28 29 29 30 30 30 30 30 31 31 31 31 30 29 28 28 29 31 33 36 37 38 38 39 40 40 40 41 41 42 43 44 45 44 43 41 39 37 35 33 31 30 28 27 25 23 22 21 21 21 21 21 21 22 23 24 25 26 27 29 30 32 33 34 36 37 39 41 42
25 25 25 25 25 25 25 25 25 26 26 26 27 27 27 28 28 28 28 28 29 29 29 29 29 30 31 31 32 31 30 29 28 29 30 33 35 37 38 38 39 39 40 41 41 42 42 43 44 44 45 45 43 40 38 36 34 32 29 28 26 25 23 22 21 21 21 20 21 21 22 22 23 24 25 26 27 29 30 31 32 34 35 37 39 40
25 25 25 25 25 25 25 25 26 26 26 26 27 27 27 28 28 28 28 28 28 28 28 28 29 29 30 31 32 32 31 30 29 29 30 32 34 36 38 38 38 38 39 40 41 42 43 44 44 45 45 46 45 43 39 36 34 31 29 27 25 24 22 21 21 21 21 21 21 21 22 23 23 24 25 26 27 28 29 29 30 32 33 35 36 38
25 25 25 25 25 25 26 26 26 26 26 26 27 27 27 28 28 28 28 28 28 28 28 28 28 29 29 30 31 31 31 30 29 29 30 31 33 36 37 38 38 38 38 39 40 42 43 44 45 45 46 46 46 44 41 37 34 31 28 26 24 23 22 21 21 21 22 21 21 22 22 23 23 24 24 25 26 26 27 28 29 30 31 33 34 36
25 25 25 25 25 26 26 26 26 26 26 26 27 27 28 28 28 28 28 28 28 28 28 28 28 28 28 29 29 30 30 29 29 29 30 31 33 35 37 37 37 37 37 38 39 40 42 43 45 45 46 45 45 43 41 38 34 31 29 26 24 23 22 22 22 22 23 23 23 23 23 23 24 24 24 25 25 25 26 27 27 29 30 31 33 34
26 25 25 25 25 25 25 25 25 25 26 26 27 27 28 28 28 28 28 28 28 28 28 29 29 29 28 28 28 28 28 28 28 29 30 31 33 35 36 37 37 37 37 37 38 39 40 42 43 44 45 45 44 42 39 36 33 31 30 27 25 24 23 23 23 23 24 24 24 24 24 24 24 25 25 25 25 25 25 26 27 28 29 30 31 32
26 25 25 25 24 24 24 24 25 25 26 26 27 27 28 28 28 28 28 28 28 28 29 29 29 29 28 27 27 26 27 27 28 29 30 31 33 34 35 36 36 36 37 37 37 38 39 40 41 42 43 43 43 41 38 35 32 31 31 30 29 27 24 24 24 24 25 25 25 25 25 25 25 25 25 25 25 25 25 26 26 27 28 29 30 31
26 25 24 24 23 23 23 24 24 25 26 26 27 28 28 29 29 29 28 28 28 28 29 29 29 28 27 26 26 26 26 27 28 29 30 31 32 33 34 35 35 36 37 37 38 38 39 39 40 41 41 41 40 39 37 34 32 31 31 32 31 29 27 26 25 25 26 26 26 26 26 26 26 26 25 25 25 25 25 26 26 27 27 28 29 30
25 24 24 23 22 23 23 23 24 25 26 27 28 28 29 29 30 30 29 29 29 28 29 29 29 29 28 26 25 25 26 27 28 29 30 31 32 33 34 34 35 35 36 37 38 38 38 39 39 39 39 39 39 38 37 34 32 31 31 31 31 31 29 27 26 26 26 27 27 27 27 27 27 27 26 26 25 25 25 25 26 26 27 27 28 29
24 23 22 22 22 23 23 24 25 26 27 27 28 28 29 29 30 30 30 30 30 29 29 30 30 30 30 28 27 26 26 27 28 29 30 31 32 33 33 33 34 34 35 36 37 38 38 38 38 37 37 37 37 37 36 35 33 31 30 29 30 31 30 29 27 26 26 27 27 27 27 27 27 27 26 26 25 25 25 25 25 25 26 26 27 28
23 23 22 22 23 23 24 25 26 27 28 28 28 29 29 29 29 30 30 30 30 30 30 31 31 32 32 32 31 30 28 28 28 29 30 30 31 32 32 32 33 34 34 35 37 37 38 38 37 36 35 35 35 35 35 34 33 31 29 28 28 29 30 29 29 28 27 26 26 26 26 26 27 27 26 26 25 25 24 24 24 24 24 25 26 27
23 23 23 23 24 24 25 26 27 28 28 28 28 28 28 29 29 30 30 31 31 31 32 32 33 34 34 34 34 33 32 30 29 29 29 29 30 30 31 31 32 33 34 35 35 36 37 37 36 35 34 34 34 34 33 33 32 30 28 27 27 27 28 28 28 28 27 27 26 25 25 26 26 26 26 26 25 24 23 22 22 22 23 23 24 26
23 23 23 24 24 25 26 27 28 28 28 28 28 28 28 29 29 30 31 32 32 33 33 34 35 36 36 36 36 35 35 33 32 30 29 29 29 29 29 30 31 32 33 34 34 35 35 35 35 34 34 33 33 31 30 30 30 29 28 27 27 27 26 26 26 26 27 26 26 25 25 25 26 26 26 25 24 23 21 21 21 21 22 23 24 25
24 24 24 24 25 26 27 27 28 28 28 28 28 28 28 29 30 30 31 32 33 34 34 35 35 36 36 36 36 36 36 35 34 33 31 30 29 29 29 29 30 31 32 33 34 34 34 34 33 33 33 33 32 30 28 27 27 28 28 28 28 28 27 26 26 26 26 26 26 26 26 26 26 27 27 26 24 22 20 20 20 21 22 23 24 25
24 24 24 25 25 26 27 27 28 28 28 28 28 28 28 29 30 31 32 33 34 34 35 35 35 36 36 36 36 36 36 36 35 35 34 32 31 31 30 31 31 32 32 33 33 33 33 32 32 31 31 31 31 30 28 26 26 27 28 29 29 29 29 28 27 27 27 27 27 27 27 27 28 28 28 27 25 23 21 20 20 20 21 23 24 25
23 24 24 25 26 26 27 27 28 28 28 28 28 28 28 29 30 32 33 34 34 35 35 35 36 36 35 35 35 35 35 35 35 35 35 34 34 33 33 33 33 33 33 33 33 32 32 31 30 28 28 29 30 30 29 28 27 28 29 30 30 31 31 30 29 29 29 29 28 28 28 28 28 29 29 29 27 24 22 20 19 20 21 22 23 24
23 24 24 25 26 26 27 27 28 28 29 29 29 29 30 30 31 32 34 34 35 35 35 35 36 36 35 35 35 35 35 35 35 35 35 35 35 35 35 35 35 35 35 35 34 34 33 31 29 26 25 26 29 31 31 31 31 31 31 31 32 32 32 32 32 31 31 30 30 29 29 28 28 29 29 30 29 26 23 21 20 19 20 22 23 23
23 23 24 25 26 26 27 28 28 29 29 30 31 31 32 32 33 34 34 35 35 35 35 35 35 35 35 35 35 35 35 35 35 35 34 35 35 35 35 35 35 35 36 36 36 35 35 33 31 27 24 25 27 30 33 34 35 35 34 33 33 33 33 34 33 33 32 32 31 30 30 29 29 29 29 30 29 28 25 22 20 20 20 21 22 23
Wind_Direction
308 308 307 307 307 306 306 305 305 304 304 303 303 303 302 302 302 302 301 301 301 301 301 300 301 301 300 300 299 298 296 294 293 291 290 289 287 286 286 285 285 284 284 284 283 282 282 281 281 280 280 279 279 278 278 277 277 277 276 277 276 276 275 275 274 273 272 271 270 269 268 267 266 266 265 265 265 265 265 266 266 266 267 267 266 266
308 308 307 307 306 306 305 305 305 305 305 304 304 303 303 303 302 302 302 302 301 301 301 301 302 302 301 300 299 298 296 294 293 291 290 288 287 286 286 285 285 285 284 284 283 282 282 281 280 280 279 279 278 278 277 277 277 277 277 276 276 275 275 274 273 272 271 270 269 268 267 266 266 266 266 266 267 267 268 268 269 269 269 270 270 269
308 307 307 306 306 306 305 305 305 305 305 305 304 304 303 303 302 302 302 302 302 302 302 303 303 302 302 301 299 298 296 295 294 292 290 289 288 287 287 286 286 285 285 284 284 283 282 281 281 280 280 280 279 279 279 279 279 278 278 277 277 276 275 274 273 272 271 269 268 268 267 267 267 267 268 268 269 270 270 271 271 272 272 272 272 272
307 307 306 306 306 305 305 305 305 305 305 304 304 303 303 303 303 302 302 303 303 303 303 304 303 303 302 301 300 299 298 296 295 293 292 290 290 289 288 288 287 287 286 285 284 284 283 282 282 282 282 281 281 281 281 281 280 280 279 279 278 277 276 275 273 272 271 270 269 269 269 269 269 270 270 271 272 272 273 273 274 274 274 274 274 273
307 306 306 306 305 305 305 305 305 305 305 304 303 303 303 303 303 303 304 304 304 304 304 304 304 304 303 303 302 301 300 298 296 295 294 292 291 291 290 289 288 288 287 286 285 285 284 284 283 283 283 283 283 282 282 281 280 279 279 278 277 276 275 274 273 272 272 271 271 271 271 271 272 272 273 273 274 275 275 275 276 276 276 275 275 274
306 306 305 305 304 304 304 305 305 305 305 304 304 303 304 304 304 304 305 305 305 305 305 305 305 305 305 305 305 304 302 300 298 297 296 294 293 292 292 291 290 289 288 287 286 286 286 285 285 285 285 284 283 282 281 280 279 278 277 276 275 274 273 273 272 272 271 271 271 272 272 273 273 274 274 275 275 276 276 276 276 276 276 275 274 274
305 305 304 304 304 304 304 305 306 306 306 305 304 304 304 305 305 305 306 306 306 306 306 306 306 307 307 307 307 305 303 301 299 297 297 296 295 295 294 293 292 291 290 289 288 288 288 287 287 286 285 283 282 281 279 278 277 276 275 274 273 272 271 271 270 270 270 271 271 272 272 273 273 274 275 275 276 276 276 276 276 275 275 274 274 273
304 303 303 303 304 304 305 306 307 307 307 307 306 306 305 305 306 306 306 307 308 308 308 308 307 308 308 309 308 307 305 302 300 299 298 298 298 297 296 295 294 292 291 291 290 290 289 288 287 285 283 282 281 280 279 278 277 275 274 273 272 271 270 269 269 269 270 270 271 271 272 273 273 274 274 275 275 275 275 275 274 274 273 273 273 272
303 303 303 304 305 306 307 308 308 309 308 308 307 306 306 306 307 307 307 308 309 310 310 309 308 309 309 310 309 308 306 304 303 302 302 302 301 300 299 297 295 293 292 291 291 290 289 287 286 284 283 282 282 281 280 279 278 276 275 273 272 271 270 269 269 269 270 270 271 271 272 272 273 273 274 274 274 274 273 273 273 272 272 272 272 272
304 304 305 306 307 308 309 309 309 309 309 308 307 307 307 308 309 309 309 310 311 311 311 310 310 310 311 312 312 310 308 306 305 305 305 305 305 303 301 298 296 294 293 292 291 290 289 287 286 285 285 285 284 284 283 281 280 278 276 274 273 272 271 270 270 270 270 271 271 271 272 272 272 273 273 273 273 272 272 271 271 271 271 271 271 271
305 306 307 308 309 310 311 310 310 309 309 309 308 309 310 311 312 312 312 312 312 313 311 310 311 312 314 314 315 314 311 307 305 305 306 306 306 304 302 299 296 295 294 293 293 292 291 290 289 289 289 289 288 287 286 284 282 280 278 276 274 273 272 272 272 272 272 272 272 272 272 272 272 272 272 272 271 271 270 270 269 269 269 269 269 269
307 308 309 310 311 312 312 311 311 311 311 311 311 312 312 314 314 314 313 313 314 314 313 312 312 314 317 318 318 317 314 310 307 307 307 308 308 305 302 299 297 296 296 296 296 296 295 295 294 294 294 294 292 290 289 286 284 282 280 278 276 275 274 273 273 273 273 273 273 273 273 273 272 272 271 270 269 268 267 267 267 266 266 266 266 267
309 310 311 312 313 313 313 313 313 313 314 314 314 313 313 314 315 315 314 314 315 315 315 313 314 317 320 321 321 320 316 312 310 309 310 312 312 310 305 301 300 300 300 300 300 301 301 300 300 300 299 297 295 292 290 287 285 283 281 279 278 276 276 275 275 275 275 274 274 274 273 273 271 270 268 266 265 264 263 263 262 263 263 263 265 266
311 312 313 313 314 314 314 314 314 315 315 315 315 314 313 314 315 315 314 314 314 315 315 314 316 319 322 324 324 321 318 314 312 311 312 315 316 315 310 306 304 305 305 305 305 306 306 305 305 304 302 300 296 293 289 287 285 284 282 281 279 278 277 277 277 276 276 276 275 274 273 272 269 267 264 262 260 259 258 258 259 259 260 262 264 266
312 313 313 314 314 315 315 315 315 315 315 315 314 314 313 314 314 315 314 314 315 316 317 316 317 320 322 325 326 324 320 316 314 313 314 316 319 318 314 309 308 308 309 309 309 309 309 308 307 306 304 300 296 292 289 288 287 287 286 284 282 281 280 279 279 278 277 276 275 274 272 269 266 262 259 256 255 254 254 254 255 257 259 261 264 267
313 314 314 315 315 315 315 315 316 315 315 314 314 313 313 314 315 315 316 316 317 318 319 319 320 320 322 324 326 325 322 318 316 315 315 317 319 320 316 312 310 310 310 311 311 311 310 309 308 307 305 301 296 292 290 290 292 292 292 290 288 286 284 283 281 280 278 277 275 273 270 265 261 257 253 251 250 250 250 252 253 256 258 261 263 266
314 314 315 315 315 315 315 316 316 315 315 314 313 313 313 314 315 316 317 317 318 319 320 320 321 321 321 323 325 326 324 319 316 315 315 316 319 320 318 313 311 311 312 312 313 312 311 310 309 308 306 302 297 293 292 294 297 298 298 296 294 291 288 286 284 282 279 277 274 271 266 261 256 252 249 247 246 247 248 250 252 255 257 260 262 264
314 315 316 315 315 315 315 316 316 316 315 314 313 313 314 315 316 316 317 318 318 318 319 320 320 320 321 322 325 327 326 321 317 315 314 315 317 319 318 314 312 312 312 313 313 313 312 311 311 310 307 303 298 295 295 297 300 302 302 300 297 294 291 288 286 283 280 277 274 269 263 257 251 248 245 245 245 246 248 250 252 254 256 259 261 263
314 315 316 315 314 314 314 316 316 316 315 315 314 314 315 315 316 316 317 317 317 318 318 319 319 320 320 322 325 328 327 322 318 315 314 314 316 319 318 314 312 311 312 313 313 313 312 311 311 311 309 305 300 297 297 299 302 304 304 303 300 298 295 291 288 285 282 278 273 267 260 254 249 246 245 244 245 246 248 250 252 254 256 259 261 263
314 315 315 315 314 313 314 316 317 317 316 315 315 315 315 315 316 316 316 317 317 317 318 318 319 320 321 322 325 327 326 322 318 315 313 313 315 317 317 314 311 310 311 312 313 313 312 312 312 312 310 307 302 299 298 299 302 304 305 304 303 301 298 294 290 286 283 279 274 267 260 254 249 246 245 245 246 248 249 251 253 255 258 260 262 264
313 314 315 315 314 313 314 316 317 317 316 315 315 315 315 315 315 315 316 317 318 318 318 319 319 320 321 322 324 326 325 322 317 314 312 312 313 315 315 313 311 310 310 311 312 312 312 312 313 314 312 309 305 301 299 299 301 303 304 304 304 302 300 295 290 286 283 280 275 269 262 256 251 248 247 247 248 249 251 254 256 259 261 263 265 266
312 313 314 314 314 314 314 316 316 317 316 315 314 314 314 314 315 316 317 318 318 318 318 317 318 319 320 321 323 325 324 320 316 313 311 310 310 312 313 311 310 309 309 311 312 312 312 312 314 315 314 311 307 303 301 300 300 302 303 304 304 303 300 295 289 285 281 279 275 271 265 259 255 252 251 251 252 254 256 258 260 262 264 265 267 268
311 312 313 314 314 314 315 316 316 316 316 315 314 314 314 314 315 316 317 317 317 316 316 316 317 318 319 320 322 323 322 319 315 311 309 308 308 310 311 310 309 309 309 310 311 311 311 312 313 315 315 313 310 307 303 301 301 301 302 303 303 303 300 294 288 282 278 276 274 271 267 263 260 257 256 256 257 259 261 262 263 264 265 267 268 270
312 313 314 315 315 315 315 316 316 316 316 315 314 314 313 313 313 314 314 315 315 315 314 315 316 317 319 320 320 321 321 318 314 310 308 307 307 308 310 310 309 308 308 310 310 311 310 311 313 315 316 316 313 310 306 303 301 301 301 301 302 301 299 294 288 282 277 274 271 269 267 265 262 261 260 260 261 262 263 264 264 265 266 268 269 271
313 314 315 316 316 316 316 316 316 316 315 314 313 313 312 311 311 312 313 313 313 313 313 314 315 317 318 319 320 321 321 319 315 311 308 306 306 307 309 310 309 309 308 309 310 310 311 312 314 316 317 317 315 312 309 305 302 301 300 300 300 299 298 296 291 285 278 273 269 267 266 264 263 262 261 261 262 263 263 264 264 265 267 269 270 271
315 315 316 316 316 316 315 315 314 314 313 312 311 310 310 310 310 312 313 313 313 313 313 314 315 316 318 318 320 321 322 321 317 312 309 306 306 306 309 310 310 309 309 310 311 312 312 313 315 317 317 316 315 312 309 306 304 303 301 300 300 299 298 297 293 288 282 275 269 266 264 263 262 261 261 261 262 262 263 264 265 266 268 269 271 272
315 315 315 315 314 314 313 312 312 311 310 310 309 309 309 310 311 312 313 313 313 313 313 314 315 316 317 318 319 322 324 324 320 315 310 307 306 308 310 311 312 312 312 312 313 313 313 314 315 317 317 316 315 312 311 309 308 307 306 304 302 300 298 296 293 289 284 277 271 266 263 262 261 261 261 261 262 262 263 264 266 267 268 270 271 272
314 313 313 313 312 312 311 311 311 310 310 310 309 309 310 311 312 313 313 313 313 313 313 314 315 316 316 317 319 321 325 327 324 317 312 309 308 310 312 314 315 315 315 314 314 313 313 314 316 317 317 317 316 315 314 313 312 311 310 308 305 302 298 295 292 288 283 277 272 267 264 262 261 260 260 261 261 262 263 264 265 267 268 269 271 272
312 312 312 312 312 312 312 312 311 311 311 310 310 310 310 311 311 312 313 313 313 313 313 313 314 315 315 316 317 321 326 329 326 320 314 312 311 312 314 316 316 317 317 316 315 313 313 315 317 318 319 319 318 318 317 316 315 313 311 309 306 302 299 295 291 286 281 276 271 267 264 262 261 260 260 261 261 262 263 264 266 267 268 269 271 272
312 313 313 314 314 314 313 313 313 313 312 311 311 310 310 310 310 311 312 312 312 312 312 313 313 314 314 315 316 319 325 329 327 322 317 314 313 314 315 316 317 318 318 318 316 315 314 316 318 319 320 320 320 320 319 318 317 315 312 309 306 303 301 296 291 285 280 275 270 267 265 263 262 261 261 261 262 263 264 265 266 267 269 270 271 273
316 316 317 317 316 316 316 315 315 314 313 311 310 309 309 309 309 310 311 311 312 312 312 312 313 313 314 314 316 318 323 328 327 322 318 315 314 315 316 317 317 318 319 318 317 316 316 317 318 320 320 320 320 320 320 319 318 316 314 311 308 305 302 298 293 286 279 274 270 267 265 263 262 262 262 262 262 263 264 265 266 268 269 270 271 272
320 319 319 319 318 318 317 316 315 314 313 311 310 309 309 309 309 310 311 312 312 312 312 312 312 313 313 314 315 318 322 327 326 323 319 316 315 316 317 317 318 318 319 318 317 316 316 317 318 320 320 320 320 321 321 320 319 317 315 313 310 307 304 300 294 287 281 275 270 267 266 264 263 263 263 263 263 264 265 266 267 268 269 270 271 272
322 321 321 320 319 318 317 316 315 313 312 311 310 309 309 309 310 311 312 312 313 313 313 313 313 313 313 314 315 318 322 326 326 323 320 317 316 316 317 317 317 318 318 318 317 316 316 317 318 319 320 320 321 321 321 321 320 318 317 315 313 310 306 302 296 290 283 277 273 269 267 266 265 264 264 264 264 264 265 266 267 268 269 270 271 272
323 322 321 320 318 317 316 315 313 312 311 310 310 309 309 310 311 312 313 314 314 314 314 313 314 314 314 315 316 319 323 326 326 323 320 318 316 316 316 316 317 317 317 317 317 316 316 317 318 319 319 320 321 321 322 322 321 320 319 318 316 313 309 304 299 292 286 281 276 273 270 268 266 266 265 265 265 265 265 266 266 267 269 270 272 272
322 321 320 318 316 315 314 313 311 310 310 309 309 309 310 310 312 313 314 315 316 315 315 314 314 315 315 316 318 320 323 325 325 323 319 317 315 315 315 315 316 317 317 317 317 317 316 317 318 318 319 319 320 321 322 322 322 322 321 320 318 315 312 307 302 296 289 284 280 277 274 272 269 268 267 266 266 266 266 266 267 267 268 270 271 272
321 320 318 316 314 313 312 311 310 310 309 309 309 310 310 311 312 314 315 316 316 316 315 315 315 315 316 317 318 320 322 324 323 321 318 316 315 314 314 315 316 316 316 316 316 316 316 316 317 317 318 318 319 320 321 323 323 323 323 322 319 316 313 310 305 300 294 289 285 281 278 276 274 272 270 269 268 267 267 267 267 267 268 268 270 271
320 318 316 314 313 312 311 311 310 310 310 310 310 310 311 312 313 315 316 316 316 316 315 315 315 315 316 317 318 319 320 321 321 319 317 316 315 315 315 315 316 316 316 316 316 316 316 316 316 316 316 317 317 318 320 322 323 324 325 323 321 318 315 311 307 303 299 295 290 287 284 281 279 276 274 272 271 269 268 268 268 268 268 268 269 271
319 317 316 314 313 312 312 312 311 311 311 311 311 312 312 313 314 315 316 316 316 316 316 315 315 315 316 316 317 317 318 318 318 317 317 316 316 316 316 316 316 316 316 316 315 315 315 314 315 315 315 315 316 317 319 321 323 325 326 324 321 319 316 313 309 306 303 299 296 292 290 287 285 282 280 277 275 273 272 271 270 270 270 270 271 271
318 317 316 315 315 314 314 313 313 313 313 313 313 313 314 315 316 316 317 317 317 317 316 315 315 315 316 316 316 316 316 316 316 316 316 317 317 316 316 316 316 316 316 315 315 314 314 313 313 313 314 314 315 316 318 320 323 325 325 323 320 318 316 314 311 308 305 302 300 297 294 292 289 287 285 282 280 278 276 274 273 273 273 273 273 272
318 318 317 316 316 316 316 316 315 315 314 314 315 316 316 317 318 318 318 318 318 317 316 315 315 315 315 316 316 316 316 315 315 316 316 317 317 316 316 316 315 315 315 314 314 313 312 312 312 312 313 314 315 316 317 321 324 326 325 322 320 318 316 314 311 309 306 303 301 299 297 294 292 290 288 285 283 281 280 278 276 275 274 274 274 273
319 319 318 318 318 318 318 318 317 317 317 317 318 319 320 320 320 320 320 320 319 318 317 315 314 314 315 316 316 316 316 316 316 316 316 317 316 316 315 315 314 314 314 313 313 312 312 312 312 313 313 314 315 316 317 321 324 325 323 320 318 316 314 312 311 309 306 304 302 301 299 297 294 292 290 288 286 284 282 281 279 277 276 275 273 273
320 320 320 320 320 320 320 319 319 320 321 323 324 324 324 324 323 323 323 322 321 320 318 317 316 315 315 316 317 317 317 317 317 317 317 317 316 315 314 314 313 313 313 312 312 312 312 312 312 313 314 315 315 315 317 320 322 322 320 318 315 312 310 309 309 309 307 305 304 302 301 299 296 294 292 289 287 286 284 282 280 278 276 274 272 271
321 321 321 321 322 322 322 323 324 326 327 328 329 329 328 327 326 325 325 324 323 322 321 319 318 317 317 318 319 319 319 319 318 318 318 317 316 314 313 313 312 312 312 312 312 312 312 312 312 313 314 314 314 315 316 318 319 319 317 315 313 311 309 309 309 308 307 305 304 303 301 299 297 295 292 290 288 286 284 281 279 277 274 272 271 270
322 322 323 323 324 325 326 328 329 331 332 332 332 332 331 329 328 327 326 325 325 324 323 321 320 320 320 321 321 322 321 321 321 320 319 317 315 313 312 312 312 311 311 311 311 312 312 312 312 313 313 313 313 314 315 316 316 315 314 313 312 311 310 310 310 308 306 305 304 303 302 300 297 295 293 291 289 286 284 281 277 275 273 272 272 272
323 324 325 326 328 330 332 333 333 334 334 335 334 333 332 331 329 328 327 326 326 325 324 323 322 322 322 323 323 323 324 324 324 323 321 318 315 313 311 311 311 311 311 311 311 311 311 312 312 312 312 311 311 312 313 314 314 314 314 313 312 310 309 309 309 309 308 306 305 304 304 302 299 297 294 291 289 287 284 282 279 276 275 275 276 278
324 325 327 329 331 334 335 335 335 335 335 335 334 334 333 331 330 329 328 327 326 326 325 324 323 323 323 324 324 324 325 325 326 325 323 320 316 313 311 310 310 311 311 311 311 311 310 311 311 311 311 310 310 311 313 314 315 315 315 315 314 312 310 309 310 310 310 309 308 307 306 304 302 299 297 294 291 289 286 284 283 282 282 282 283 284
325 327 330 332 334 336 336 336 335 335 335 335 334 334 333 332 331 330 329 328 327 326 325 325 324 324 324 325 325 325 325 326 326 326 325 322 319 316 313 312 312 312 311 311 311 311 310 310 309 309 310 310 310 312 314 315 317 318 319 318 317 316 314 314 313 313 313 312 311 311 310 308 305 303 300 297 295 292 290 288 288 289 289 289 289 288
328 330 332 334 336 336 336 336 335 334 334 334 334 334 334 333 332 331 330 329 328 327 326 326 325 325 325 326 326 326 326 326 326 326 326 324 322 319 317 316 315 314 313 312 311 310 310 309 309 309 309 311 313 315 317 319 321 323 323 323 322 320 318 318 317 317 316 315 314 314 313 311 309 307 304 301 298 296 295 294 294 294 294 294 292 290
332 333 335 336 336 336 336 335 334 334 334 334 334 335 335 335 334 333 332 331 330 329 328 328 327 327 327 327 327 327 326 326 327 327 326 325 324 322 321 320 318 317 316 314 313 312 310 309 309 310 312 315 318 320 322 324 327 328 328 327 326 324 322 321 320 320 318 317 316 315 314 313 311 308 306 304 302 300 299 299 298 298 297 295 293 291
335 336 336 336 336 335 335 334 334 334 334 334 335 336 337 337 336 335 334 333 332 331 330 330 329 329 329 328 328 327 327 327 327 327 327 326 325 324 323 323 322 321 319 318 316 315 314 313 313 315 318 322 324 326 328 330 331 332 331 329 328 326 324 322 321 320 319 318 317 316 315 313 311 308 306 304 302 301 301 301 301 300 298 296 294 291
336 337 337 336 335 334 333 333 333 333 334 334 336 337 338 338 338 336 335 334 333 332 332 331 330 330 329 329 328 328 328 327 328 328 327 327 326 326 326 325 325 324 322 321 320 320 319 319 319 320 324 329 331 331 331 333 334 333 331 330 328 326 324 322 321 320 319 318 317 316 314 312 310 308 306 304 303 302 302 302 303 302 301 299 296 292